[TLELIST] Archives

 

[list_settings.list_name] Current TLEs

December 5th 2013 PST

HST 1 20580U 90037B 13338.16132502 .00002445 00000-0 15932-3 0 3871 2 20580 028.4695 238.0919 0003301 006.1787 147.6659 15.04291874 95316 ISS (ZARYA) 1 25544U 98067A 13339.48206744 .00011471 00000-0 20317-3 0 1693 2 25544 051.6494 339.6201 0001432 109.1345 023.9876 15.50762265861276 CXO 1 25867U 99040B 13339.82755351 -.00000550 00000-0 00000+0 0 9827 2 25867 076.3118 329.8434 8380866 276.2001 359.6965 00.37800992 11188 ____________________________________________________________________ These 2-Line ...Continue Reading

[list_settings.list_name] Current TLEs

December 4th 2013 PST

HST 1 20580U 90037B 13338.16132502 .00002445 00000-0 15932-3 0 3871 2 20580 028.4695 238.0919 0003301 006.1787 147.6659 15.04291874 95316 ISS (ZARYA) 1 25544U 98067A 13338.26651620 .00010965 00000-0 19478-3 0 1610 2 25544 051.6499 345.6500 0001289 101.7848 080.7990 15.50731341861084 CXO 1 25867U 99040B 13339.82755351 -.00000550 00000-0 00000+0 0 9827 2 25867 076.3118 329.8434 8380866 276.2001 359.6965 00.37800992 11188 ____________________________________________________________________ These 2-Line ...Continue Reading

[list_settings.list_name] Current TLEs

December 3rd 2013 PST

HST 1 20580U 90037B 13336.88508682 .00002476 00000-0 16152-3 0 3862 2 20580 028.4699 246.4669 0003274 353.2020 075.6176 15.04285887 95119 ISS (ZARYA) 1 25544U 98067A 13337.47622454 .00010973 00000-0 19504-3 0 1557 2 25544 051.6500 349.5697 0001297 096.9366 350.8491 15.50713342860960 CXO 1 25867U 99040B 13339.82755351 -.00000550 00000-0 00000+0 0 9827 2 25867 076.3118 329.8434 8380866 276.2001 359.6965 00.37800992 11188 ____________________________________________________________________ These 2-Line ...Continue Reading

[list_settings.list_name] Current TLEs

December 2nd 2013 PST

HST 1 20580U 90037B 13335.23744455 .00002746 00000-0 18045-3 0 3852 2 20580 028.4698 257.2726 0003233 335.4473 153.1102 15.04277395 94879 ISS (ZARYA) 1 25544U 98067A 13336.45714267 .00012106 00000-0 21450-3 0 1483 2 25544 051.6501 354.6240 0001198 097.0746 057.9054 15.50692874860805 CXO 1 25867U 99040B 13337.18148733 -.00000576 00000-0 00000+0 0 9811 2 25867 076.3010 329.9891 8385252 276.1944 359.6325 00.37801067 11179 ____________________________________________________________________ These 2-Line ...Continue Reading

[list_settings.list_name] Current TLEs

December 1st 2013 PST

HST 1 20580U 90037B 13334.17728598 .00002549 00000-0 16670-3 0 3846 2 20580 028.4700 264.2292 0003188 324.4279 171.6356 15.04271282 94718 ISS (ZARYA) 1 25544U 98067A 13335.43560185 .00004701 00000-0 88237-4 0 1410 2 25544 051.6479 359.6841 0001405 107.8214 100.6979 15.50665451860647 CXO 1 25867U 99040B 13337.18148733 -.00000576 00000-0 00000+0 0 9811 2 25867 076.3010 329.9891 8385252 276.1944 359.6325 00.37801067 11179 ____________________________________________________________________ These 2-Line ...Continue Reading

[list_settings.list_name] Current TLEs

November 30th 2013 PST

HST 1 20580U 90037B 13334.17728598 .00002549 00000-0 16670-3 0 3846 2 20580 028.4700 264.2292 0003188 324.4279 171.6356 15.04271282 94718 ISS (ZARYA) 1 25544U 98067A 13334.44562944 .00009794 00000-0 17538-3 0 1338 2 25544 051.6529 004.5966 0001322 092.8204 345.6621 15.50641618860494 CXO 1 25867U 99040B 13337.18148733 -.00000576 00000-0 00000+0 0 9811 2 25867 076.3010 329.9891 8385252 276.1944 359.6325 00.37801067 11179 ____________________________________________________________________ These 2-Line ...Continue Reading

[list_settings.list_name] Current TLEs

November 29th 2013 PST

HST 1 20580U 90037B 13332.31919740 .00002429 00000-0 15833-3 0 3837 2 20580 028.4711 276.4265 0003059 304.2265 189.7560 15.04263451 94438 ISS (ZARYA) 1 25544U 98067A 13333.28525701 .00008331 00000-0 15059-3 0 1252 2 25544 051.6511 010.3503 0001332 107.8888 328.8421 15.50604251860317 CXO 1 25867U 99040B 13331.93539516 .00000000 00000-0 10000-3 0 9671 2 25867 076.2680 330.2964 8385390 276.2455 005.4857 00.37809139 11150 ____________________________________________________________________ These 2-Line ...Continue Reading

[list_settings.list_name] Current TLEs

November 28th 2013 PST

HST 1 20580U 90037B 13331.18877549 .00002637 00000-0 17289-3 0 3828 2 20580 028.4712 283.8438 0003008 291.5661 188.7141 15.04259931 94268 ISS (ZARYA) 1 25544U 98067A 13332.45788382 .00009833 00000-0 17636-3 0 1189 2 25544 051.6511 014.4525 0001229 099.6768 035.4817 15.50591395860185 CXO 1 25867U 99040B 13331.93539516 .00000000 00000-0 10000-3 0 9671 2 25867 076.2680 330.2964 8385390 276.2455 005.4857 00.37809139 11150 ____________________________________________________________________ These 2-Line ...Continue Reading

[list_settings.list_name] Current TLEs

November 27th 2013 PST

HST 1 20580U 90037B 13331.18877549 .00002637 00000-0 17289-3 0 3828 2 20580 028.4712 283.8438 0003008 291.5661 188.7141 15.04259931 94268 ISS (ZARYA) 1 25544U 98067A 13331.42496816 .00009870 00000-0 17713-3 0 1102 2 25544 051.6514 019.5727 0001126 091.7420 033.7778 15.50570765860020 CXO 1 25867U 99040B 13331.89355216 -.00000557 00000-0 00000+0 0 9795 2 25867 076.2758 330.3214 8388940 276.1917 000.0127 00.37802716 11156 ____________________________________________________________________ These 2-Line ...Continue Reading

[list_settings.list_name] Current TLEs

November 26th 2013 PST

HST 1 20580U 90037B 13329.33660251 .00003325 00000-0 22125-3 0 3811 2 20580 028.4713 295.9971 0002940 271.5943 238.7804 15.04250896 93981 ISS (ZARYA) 1 25544U 98067A 13330.51436007 .00000814 00000-0 21834-4 0 1049 2 25544 051.6511 024.0876 0001099 098.9129 340.2078 15.50539847859884 CXO 1 25867U 99040B 13331.89355216 -.00000557 00000-0 00000+0 0 9795 2 25867 076.2758 330.3214 8388940 276.1917 000.0127 00.37802716 11156 ____________________________________________________________________ These 2-Line ...Continue Reading
  • This mailing list is a public mailing list - anyone may join or leave, at any time.
  • This mailing list is announce-only.

International Space Station (ISS) / Hubble Space Telescope (HST) / Chandra X-Ray Observatory Orbital Data via EMAIL

Privacy Policy:

Private list